Location: Alsip
(41.6689°N, 87.7387°W)
Time: 18:02:35
(UTC+00:00)

STARLINK-2732 - Pass Details

Date: 02 August 2021
Orbit: 546 x 548 km, 53.1° (Epoch: 22 September)

Event Time Altitude Azimuth Distance (km) Brightness Sun altitude
Rises 02:08:50 0° 301° (WNW) 2,715 9.4 -10.6°
Reaches altitude 10° 02:11:11 10° 293° (WNW) 1,818 7.7 -11.0°
Maximum altitude 02:14:58 35° 227° (SW) 893 4.8 -11.5°
Enters shadow 02:18:17 12° 163° (SSE) 1,654 5.6 -12.0°
